星链-2037 (STARLINK-2037 )

导读

STARLINK-2037是美国SpaceX公司于2021年2月16日发射的星链系列低轨通信卫星,属于星链全球宽带互联网星座组网的组成部分。它部署在近地轨道,搭载Ku/Ka波段通信载荷,配备氪霍尔推进器,具备自主避撞能力,可在寿命末期主动离轨,为全球提供高速互联网接入服务,填补地面网络覆盖盲区。

基本信息
目录编号:
47653
目录名称:
STARLINK-2037
国际标识:
2021-012AK
轨道中心:
EARTH
卫星名称:
星链-2037
卫星全名:
星链-2037 (STARLINK-2037 )
卫星状态:
已陨落 最后检测时间 2025-01-21
发射日期:
2021-02-16 UTC
国别 :
美国 (US)
星等 :
--
该卫星已列入 空间交会检测服务 Space Conjunction Data Service (SCDS) ,当前飞行风险评估等级: 无高风险
轨道信息
数据来源 国际轨道数据
星历时间: 2025-01-21T18:24:17+0800
轨道信息已过期597天
半长轴: 6527.696km
偏心率: 0.0003805
轨道倾角: 53.025°
近地点辐角 191.579°
升交点赤经 76.744°
平近点角 260.789°
近地点: 147.077km
远地点: 152.045km
周期: 87.478分钟
每日圈数: 16.461255
详细信息
固有亮度:
5
最大亮度:
2.5
卫星平台:
Starlink V1.0
覆盖范围:
全球
运营商:
太空探索技术公司
运营商所在国:
美国
制造商(研发单位):
太空探索技术公司
制造商所在国:
美国
使用方式:
暂无
卫星简介
星链(Starlink)计划是由太空探索技术公司(SpaceX)提出的一个巨型低轨卫星互联网星座项目,计划在2019年至2024年间在太空搭建由约1.2万颗卫星组成的“星链”网络,其中1584颗将部署在地球上空550千米处的近地轨道,并从2020年开始工作。该卫星仍在工作。
与全量物体交会距离演化趋势
与全量物体交会风险概率演化趋势